Lapse_Rate
6.6 6.5 6.6 6.6 6.6 6.6 6.5 6.4 6.5 6.4 6.6 6.7 6.7 6.7 6.6 6.6 6.7 6.8 6.8 6.9 6.9 6.9
6.5 6.6 6.6 6.5 6.6 6.4 6.3 6.2 6.5 6.5 6.4 6.4 6.4 6.5 6.5 6.5 6.4 6.5 6.4 6.5 6.8 7.0
6.4 6.4 6.4 6.4 6.6 6.6 6.7 6.5 6.4 6.2 6.3 6.3 6.3 6.3 6.4 6.5 6.5 6.5 6.7 6.9 7.1 7.4
6.4 6.4 6.6 6.7 6.7 6.6 6.4 6.2 6.1 6.2 6.2 6.2 6.1 6.1 6.3 6.4 6.8 7.0 7.2 7.4 7.5 7.6
6.3 6.4 6.6 6.7 6.5 6.1 5.9 6.0 6.1 6.2 6.2 6.2 6.3 6.4 6.5 6.7 7.1 7.2 7.5 7.5 7.7 7.7
6.4 6.6 6.5 6.6 6.5 6.3 6.0 6.1 6.2 6.2 6.3 6.3 6.5 6.7 6.9 7.2 7.2 7.4 7.6 7.6 7.6 7.6
6.6 6.7 6.8 6.9 6.7 6.4 6.1 6.2 6.2 6.3 6.3 6.5 6.7 6.9 7.1 7.2 7.1 7.4 7.7 7.5 7.5 7.4
6.5 6.8 6.8 6.8 6.8 6.6 6.6 6.4 6.3 6.2 6.4 6.7 7.0 7.1 7.4 7.4 7.3 7.6 7.7 7.7 7.4 7.6
6.8 6.9 7.0 7.1 7.1 7.0 6.6 6.4 6.3 6.5 6.7 6.9 7.0 7.3 7.6 7.4 7.4 7.4 7.6 7.7 7.7 7.7
7.0 6.8 6.8 6.9 7.0 6.9 6.5 6.2 6.4 6.8 7.0 7.2 7.4 7.5 7.5 7.5 7.5 7.6 7.8 7.8 7.8 7.6
6.7 6.4 6.4 6.4 6.5 6.5 6.2 6.4 6.8 6.9 7.1 7.2 7.5 7.6 7.7 7.8 8.0 8.1 7.9 7.8 7.7 7.7
6.2 6.3 6.4 6.4 6.3 6.2 6.4 6.7 6.8 7.0 7.3 7.4 7.7 7.7 8.0 8.1 8.1 7.9 7.6 7.6 7.4 7.2
6.2 6.1 6.2 6.3 6.3 6.3 6.4 7.0 6.9 7.2 7.4 7.6 7.7 7.9 8.0 8.0 7.8 7.6 7.4 7.2 6.9 6.8
5.6 6.1 6.2 6.1 6.2 6.6 6.7 6.8 7.0 7.2 7.5 7.6 7.8 7.9 7.9 7.8 7.7 7.4 7.3 7.0 6.5 6.3
Wind_Speed
8 4 4 7 6 6 6 8 9 7 8 5 8 6 4 2 3 4 2 3 3 3
5 5 5 7 4 2 3 7 7 8 6 6 6 6 6 3 4 4 3 4 2 2
6 5 3 5 5 5 6 4 7 7 6 7 6 6 5 3 3 2 2 2 3 1
5 6 5 4 4 5 4 6 5 6 6 5 5 6 5 5 5 6 5 4 2 3
4 3 4 4 5 4 4 3 4 4 4 5 6 6 6 6 5 6 5 5 4 2
5 4 4 5 4 5 3 4 4 3 3 4 4 3 4 5 4 3 1 2 2 1
6 5 4 4 4 2 2 2 2 3 3 4 3 3 4 3 3 3 5 6 4 3
6 5 5 5 3 3 5 5 6 6 5 4 2 6 6 3 6 6 7 4 3 7
6 4 5 4 3 4 4 4 6 8 9 10 6 7 13 8 4 6 6 5 5 3
5 3 5 3 5 6 7 6 6 6 6 7 7 12 15 10 6 7 6 4 4 4
6 7 8 7 6 6 5 5 3 4 5 5 5 12 12 11 7 8 8 7 6 5
5 6 6 5 5 3 3 2 2 3 4 5 4 10 8 8 7 7 7 7 7 4
4 5 5 5 4 2 2 2 3 4 3 6 5 8 8 7 5 5 4 5 6 9
5 5 5 4 2 2 3 4 4 5 4 5 5 6 9 10 3 4 4 4 4 3
Wind_Direction
159 174 170 174 198 173 178 183 159 180 185 192 167 178 184 228 208 198 181 235 278 304
185 195 189 163 105 151 103 121 153 170 180 182 178 189 186 220 208 176 213 238 191 268
166 185 200 139 163 219 161 185 151 175 187 188 187 186 197 224 221 177 244 214 239 270
175 179 173 170 189 201 176 163 178 185 191 193 210 192 194 211 255 180 216 207 208 236
162 193 167 195 195 163 171 171 191 205 200 214 221 209 195 207 222 206 208 237 171 210
176 176 194 188 187 145 218 213 178 218 254 248 242 245 231 210 217 164 273 31 68 216
169 190 188 155 137 162 218 314 230 213 220 260 268 282 253 245 160 134 84 56 5 6
138 111 87 72 68 44 43 1 1 354 353 346 344 36 22 5 85 99 103 101 27 66
93 115 103 99 82 58 39 2 16 22 21 49 57 30 57 32 98 98 113 125 96 82
120 116 111 98 68 51 46 43 32 24 27 42 56 43 57 43 68 80 75 94 143 125
64 71 67 65 56 48 54 44 36 32 27 64 59 57 63 66 71 75 66 66 55 79
66 83 89 98 91 54 87 65 56 62 54 82 95 92 80 89 85 84 83 72 47 63
84 99 101 106 111 121 112 117 101 91 84 106 92 97 74 106 109 110 105 91 86 71
112 114 119 119 90 100 104 102 94 99 85 97 98 91 76 56 82 125 128 127 107 87